Location: Unspecified
(0.0000°N, 0.0000°E)
Time: 08:25:24
(UTC+00:00)

ISS - Visible Passes

Search period start: 26 January 2015 00:00
Search period end: 05 February 2015 00:00
Orbit: 402 x 410 km, 51.6° (Epoch: 25 January)

Date Brightness Start Highest point End Pass type
(mag) Time Alt. Az. Time Alt. Az. Time Alt. Az.
26 Jan -0.5 20:08:44 10° SSW 20:09:27 15° SSW 20:09:27 15° SSW visible
27 Jan -2.1 19:17:28 10° S 19:20:14 26° SE 19:20:20 26° ESE visible
28 Jan -0.9 20:02:08 10° WSW 20:04:01 21° WNW 20:04:01 21° WNW visible
29 Jan -3.1 19:09:46 10° SW 19:13:00 66° NW 19:15:01 21° NNE visible
31 Jan -0.6 19:03:36 10° W 19:05:43 16° NW 19:07:43 10° NNW visible
02 Feb -3.3 05:44:34 10° NW 05:47:50 75° SW 05:51:07 10° SSE visible
03 Feb -1.9 04:54:37 24° N 04:55:57 35° NE 04:59:00 10° ESE visible
04 Feb 0.1 04:05:33 11° E 04:05:33 11° E 04:05:49 10° E visible
04 Feb -1.5 05:38:16 11° W 05:40:23 18° SW 05:42:39 10° S visible
